Orbital elements of FENGYUN 1C DEB
| Launched | 9 May 1999 |
| Flight ended | – |
| Launch site | Taiyuan Space Center, PRC |
| Owner | People's Republic of China |
| NORAD ID | 30037 |
| Date fetched |
Epoch osculation |
Inc. [°] |
Ecc. | RA asc node [hr] |
Arg Peri. [°] |
Mean anom [°] |
Mean motion [rev/day] |
Abs. mag |
| Date fetched |
Epoch osculation |
Inc. [°] |
Ecc. | RA asc node [hr] |
Arg Peri. [°] |
Mean anom [°] |
Mean motion [rev/day] |
Abs. mag |
| 2026 May 07 17:58 | 2026 May 05 10:12:36 | 98.4023 | 0.01727 | 6.8038 | 347.5160 | 164.1444 | 14.34329 | – |
| 2026 May 06 17:57 | 2026 May 05 10:12:36 | 98.4023 | 0.01727 | 6.8038 | 347.5160 | 164.1444 | 14.34329 | – |
| 2026 May 05 17:57 | 2026 May 05 10:12:36 | 98.4023 | 0.01727 | 6.8038 | 347.5160 | 164.1444 | 14.34329 | – |
| 2026 May 04 17:57 | 2026 Apr 30 11:11:17 | 98.4018 | 0.01731 | 6.4821 | 2.2848 | 164.1444 | 14.34329 | – |
| 2026 May 03 17:57 | 2026 Apr 30 11:11:17 | 98.4018 | 0.01731 | 6.4821 | 2.2848 | 164.1444 | 14.34329 | – |
| 2026 May 02 17:57 | 2026 Apr 30 11:11:17 | 98.4018 | 0.01731 | 6.4821 | 2.2848 | 164.1444 | 14.34329 | – |
| 2026 May 01 17:56 | 2026 Apr 30 11:11:17 | 98.4018 | 0.01731 | 6.4821 | 2.2848 | 164.1444 | 14.34329 | – |
| 2026 Apr 30 17:56 | 2026 Apr 30 11:11:17 | 98.4018 | 0.01731 | 6.4821 | 2.2848 | 164.1444 | 14.34329 | – |
| 2026 Apr 29 17:57 | 2026 Apr 24 09:41:44 | 98.4014 | 0.01735 | 6.0890 | 20.2928 | 164.1444 | 14.34329 | – |
| 2026 Apr 28 17:56 | 2026 Apr 24 09:41:44 | 98.4014 | 0.01735 | 6.0890 | 20.2928 | 164.1444 | 14.34329 | – |
| 2026 Apr 27 17:58 | 2026 Apr 24 09:41:44 | 98.4014 | 0.01735 | 6.0890 | 20.2928 | 164.1444 | 14.34329 | – |
| 2026 Apr 26 17:58 | 2026 Apr 24 09:41:44 | 98.4014 | 0.01735 | 6.0890 | 20.2928 | 164.1444 | 14.34329 | – |
| 2026 Apr 25 17:58 | 2026 Apr 24 09:41:44 | 98.4014 | 0.01735 | 6.0890 | 20.2928 | 164.1444 | 14.34329 | – |
| 2026 Apr 24 17:59 | 2026 Apr 24 09:41:44 | 98.4014 | 0.01735 | 6.0890 | 20.2928 | 164.1444 | 14.34329 | – |
| 2026 Apr 23 17:57 | 2026 Apr 19 05:09:22 | 98.4012 | 0.01738 | 5.7525 | 35.6829 | 164.1444 | 14.34329 | – |
| 2026 Apr 22 17:57 | 2026 Apr 19 05:09:22 | 98.4012 | 0.01738 | 5.7525 | 35.6829 | 164.1444 | 14.34329 | – |
| 2026 Apr 21 17:57 | 2026 Apr 19 05:09:22 | 98.4012 | 0.01738 | 5.7525 | 35.6829 | 164.1444 | 14.34329 | – |
| 2026 Apr 20 17:57 | 2026 Apr 19 05:09:22 | 98.4012 | 0.01738 | 5.7525 | 35.6829 | 164.1444 | 14.34329 | – |
| 2026 Apr 19 17:58 | 2026 Apr 19 05:09:22 | 98.4012 | 0.01738 | 5.7525 | 35.6829 | 164.1444 | 14.34329 | – |
| 2026 Apr 18 17:56 | 2026 Apr 13 05:10:18 | 98.4004 | 0.01741 | 5.3634 | 53.4374 | 164.1444 | 14.34329 | – |
| 2026 Apr 16 17:57 | 2026 Apr 13 05:10:18 | 98.4004 | 0.01741 | 5.3634 | 53.4374 | 164.1444 | 14.34329 | – |
| 2026 Apr 14 17:57 | 2026 Apr 13 05:10:18 | 98.4004 | 0.01741 | 5.3634 | 53.4374 | 164.1444 | 14.34329 | – |
| 2026 Apr 13 17:57 | 2026 Apr 13 05:10:18 | 98.4004 | 0.01741 | 5.3634 | 53.4374 | 164.1444 | 14.34329 | – |
| 2026 Apr 12 17:57 | 2026 Apr 08 11:48:54 | 98.3999 | 0.01742 | 5.0572 | 67.3973 | 164.1444 | 14.34329 | – |
| 2026 Apr 11 17:57 | 2026 Apr 08 11:48:54 | 98.3999 | 0.01742 | 5.0572 | 67.3973 | 164.1444 | 14.34329 | – |
| 2026 Apr 10 17:58 | 2026 Apr 08 11:48:54 | 98.3999 | 0.01742 | 5.0572 | 67.3973 | 164.1444 | 14.34329 | – |